{"data":{"norad_id":65279,"epoch":"2026-05-25T03:27:58.402944Z","epoch_age_seconds":62550,"freshness":"FRESH","line1":"1 65279U 25184G   26145.14442596  .00001812  00000+0  12964-3 0  9998","line2":"2 65279  97.4485 197.6340 0001029  88.6085 271.5260 15.05649455 42806","mean_motion":15.05649455,"eccentricity":0.0001029,"inclination_deg":97.4485,"raan_deg":197.634,"arg_perigee_deg":88.6085,"mean_anomaly_deg":271.526,"bstar":0.00012964,"rev_number":4280,"period_min":95.639791534345,"perigee_km":548.79997060601,"apogee_km":550.22568094015,"semimajor_km":6927.6498257731,"source":"CELESTRAK","updated_at":"2026-05-25T13:38:20.730587Z"}}